User: anonymous   Login
Location: Unspecified
(0.0000°N, 0.0000°E)
Time: 20:59:28
(UTC+01:00)
Language:

Cosmos 2219 Rocket - Orbit

View from above orbital plane
View from above orbital plane
View from above satellite
View from above satellite

Ground track
Ground track

The orbit data is extracted from the following two-line orbital elements,

1 22220U 92076B   15029.68859549 -.00000050  00000-0 -89552-6 0  5126
2 22220 071.0000 089.4006 0011933 168.0782 334.6614 14.16348270147650
Epoch (UTC): 29 January 2015 16:31:34
Eccentricity: 0.0011933
inclination: 71.0000°
perigee height: 829 km
apogee height: 846 km
right ascension of ascending node: 89.4006°
argument of perigee: 168.0782°
revolutions per day: 14.16348270
mean anomaly at epoch: 334.6614°
orbit number at epoch: 14765

The dashed part of the orbit path shows where the satellite is in the earth's shadow,  

DLR